Location: ??
(35.4032°N, 139.3073°E)
Time: 10:31:44
(UTC+00:00)

YAOGAN 6 - Pass Details

Date: 13 April 2024
Orbit: 415 x 435 km, 97.2° (Epoch: 21 May)

Event Time Altitude Azimuth Distance (km) Brightness Sun altitude
Rises 18:16:13 0° 12° (NNE) 2,393 6.7 -22.7°
Reaches altitude 10° 18:18:14 10° 14° (NNE) 1,528 5.7 -22.4°
Enters shadow 18:21:08 66° 38° (NE) 473 2.6 -21.8°
